Location: Sternwarte Hubelmatt
(47.0367°N, 8.3053°E)
Time: 13:10:49
(UTC+01:00)

ARIANE 6 FM1 Upper Stage - Visible Passes

Search period start: 16 January 2026 00:00
Search period end: 26 January 2026 00:00
Orbit: 522 x 610 km, 62.0° (Epoch: 16 January)

Date Brightness Start Highest point End Pass type
(mag) Time Alt. Az. Time Alt. Az. Time Alt. Az.
16 Jan 4.4 06:15:02 18° SW 06:15:02 18° SW 06:16:45 10° SSW visible
17 Jan 5.0 06:16:00 10° SSW 06:16:00 10° SSW 06:16:00 10° SSW visible
20 Jan 4.9 18:36:47 10° SE 18:36:48 10° SE 18:36:48 10° SE visible
20 Jan 5.2 20:12:10 10° SW 20:12:51 15° SW 20:12:51 15° SW visible
21 Jan 4.3 18:35:19 10° SSE 18:37:46 16° ESE 18:37:46 16° ESE visible
21 Jan 4.9 20:12:23 10° SW 20:13:50 21° SW 20:13:50 21° SW visible
22 Jan 3.8 18:34:39 10° S 18:37:53 23° ESE 18:38:40 22° ESE visible
22 Jan 4.6 20:12:44 10° WSW 20:14:44 26° WSW 20:14:44 26° WSW visible
23 Jan 3.4 18:34:17 10° S 18:37:57 33° ESE 18:39:28 24° E visible
23 Jan 4.6 20:13:11 10° WSW 20:15:32 27° W 20:15:32 27° W visible
24 Jan 2.9 18:34:08 10° SSW 18:38:03 48° SE 18:40:11 23° ENE visible
24 Jan 4.7 20:13:44 10° W 20:16:15 25° WNW 20:16:15 25° WNW visible
25 Jan 2.5 18:34:08 10° SSW 18:38:11 70° SE 18:40:49 20° NE visible
25 Jan 4.8 20:14:23 10° W 20:16:52 21° NW 20:16:52 21° NW visible
